BEIDOU IGSO 1

Last updated on April 2, 2019, 3:15 a.m. UTC

1 36828U 10036A   19091.47320159 -.00000179  00000-0  10000-3 0  9990
2 36828  54.1491 187.1711 0078224 232.7725  58.4978  1.00287747 31809
UTC
Height (km)
Latitude
Longitude
Inclination
Orbital Period
UTC large
Height (km)
Speed (km/s)
/
Latitude / Longitude
Inclination (degrees)
Orbital Period (minutes)
Azimuth
Elevation
Range (km)
Doppler Factor
iOS Compass Heading
iOS Angle

Next 30 passes for location: Hong Kong

Rise time Rise Azimuth (degrees) Set time Set Azimuth (degrees) Duration Max altitude (degrees)

No matching passes for this satellites